This is the latest recevied weather packets stored in our database for station/object KF6FPU-15. If no packets are shown the sender has not sent any weather packets the latest 10 day(s).
| Time | Temp. | Humidity | Pressure | Rain* | Wind** | Luminosity | Snow |
|---|---|---|---|---|---|---|---|
| 1777579310 | 29.44° C | 18% | 1013.2 hPa | - | - | - | - |
| 1777578710 | 30° C | 18% | 1013.3 hPa | - | - | - | - |
| 1777578110 | 32.22° C | 18% | 1013.4 hPa | - | - | - | - |
| 1777577510 | 32.22° C | 18% | 1013.6 hPa | - | - | - | - |
| 1777576910 | 31.11° C | 18% | 1013.6 hPa | - | - | - | - |
| 1777576311 | 31.11° C | 18% | 1013.8 hPa | - | - | - | - |
| 1777575710 | 31.11° C | 18% | 1013.9 hPa | - | - | - | - |
| 1777575110 | 30.56° C | 18% | 1014 hPa | - | - | - | - |
| 1777574510 | 30° C | 18% | 1014.1 hPa | - | - | - | - |
| 1777573310 | 30° C | 18% | 1014.3 hPa | - | - | - | - |
| 1777572710 | 30° C | 18% | 1014.3 hPa | - | - | - | - |
| 1777572111 | 30° C | 18% | 1014.3 hPa | - | - | - | - |
| 1777571510 | 30° C | 18% | 1014.3 hPa | - | - | - | - |
| 1777570910 | 28.89° C | 19% | 1014.4 hPa | - | - | - | - |
| 1777570310 | 29.44° C | 19% | 1014.4 hPa | - | - | - | - |
| 1777569710 | 28.89° C | 19% | 1014.5 hPa | - | - | - | - |
| 1777569110 | 28.89° C | 19% | 1014.5 hPa | - | - | - | - |
| 1777568511 | 28.89° C | 19% | 1014.6 hPa | - | - | - | - |
| 1777567911 | 28.33° C | 19% | 1014.6 hPa | - | - | - | - |
| 1777566711 | 28.33° C | 19% | 1014.6 hPa | - | - | - | - |
| 1777566111 | 27.78° C | 19% | 1014.6 hPa | - | - | - | - |
| 1777565510 | 27.78° C | 19% | 1014.6 hPa | - | - | - | - |
| 1777564910 | 27.78° C | 19% | 1014.6 hPa | - | - | - | - |
| 1777564311 | 27.22° C | 19% | 1014.6 hPa | - | - | - | - |
| 1777563711 | 27.22° C | 19% | 1014.5 hPa | - | - | - | - |
* Rain since midnight (hover to see other rain measurements)
** Current wind speed in m/s (hover to see current wind gust speed)